Location: Winterland
(47.1574°N, 55.3067°W)
Time: 14:53:41
(UTC+00:00)

Tiangong - Pass Details

Date: 20 August 2022
Orbit: 377 x 382 km, 41.5° (Epoch: 27 September)

Event Time Altitude Azimuth Distance (km) Brightness Sun altitude
Rises 01:06:01 0° 259° (W) 2,237 2.2 -20.6°
Reaches altitude 10° 01:08:16 10° 246° (WSW) 1,384 0.9 -20.9°
Enters shadow 01:08:55 14° 239° (WSW) 1,167 0.4 -20.9°
